Weather History for Fort Wayne, IN

Change the Weather History Date:

Wednesday, April 24, 2013

  Actual Average Record
Temperature  
Mean Temperature 42 °F 53 °F  
Max Temperature 48 °F 65 °F 88 °F (1925)
Min Temperature 35 °F 42 °F 27 °F (1930)
Degree Days  
Heating Degree Days 23 12  
Month to date heating degree days 430 392  
Since 1 July heating degree days 5803 5816  
Cooling Degree Days 0 0  
Month to date cooling degree days 0 0  
Year to date cooling degree days 0 0  
Moisture  
Dew Point 38 °F    
Average Humidity 79    
Maximum Humidity 100    
Minimum Humidity 57    
Precipitation  
Precipitation 0.42 in 0.11 in 0.97 in (1955)
Month to date precipitation 6.64 2.87  
Year to date precipitation 14.27 9.88  
Snow  
Snow T in 0.00 in 0.40 in (1968)
Month to date snowfall T 1.0  
Since 1 July snowfall 38.5 33.5  
Snow Depth 0.00 in    
Sea Level Pressure  
Sea Level Pressure 29.94 in    
Wind  
Wind Speed 12 mph (NW)    
Max Wind Speed 25 mph    
Max Gust Speed 31 mph    
Visibility 7 miles    
Events Rain , Snow    
T = Trace of Precipitation, MM = Missing Value Source: NWS Daily Summary

Daily Weather History Graph

Daily Weather History Graph

Search for Another Location

Airport:

Trip Planner

Search our weather history database for the weather conditions in past years. The results will help you decide how hot, cold, wet, or windy it might be!

Date:

Astronomy

Apr. 24, 2013 Rise Set
Actual Time 6:47 AM EDT 8:30 PM EDT
Civil Twilight 6:18 AM EDT 8:59 PM EDT
Nautical Twilight 5:43 AM EDT 9:35 PM EDT
Astronomical Twilight 5:05 AM EDT 10:13 PM EDT
Moon 7:32 PM EDT (4/24) 5:51 AM EDT (4/24)
Length of Visible Light 14h 40m
Length of Day
13h 42m
Waxing Gibbous, 98% of the Moon is Illuminated
Apr 24
Waxing Gibbous
Apr 25
Full
May 2
Last Quarter
May 9
New
May 18
First Quarter

Hourly Weather History & Observations

Time (EDT) Temp. Windchill Dew Point Humidity Pressure Visibility Wind Dir Wind Speed Gust Speed Precip Events Conditions
12:05 AM 57.2 °F - 55.4 °F 94% 29.81 in 2.5 mi West 9.2 mph - 0.04 in Rain Rain
12:18 AM 51.8 °F - 50.0 °F 94% 29.81 in 3.0 mi NW 10.4 mph 17.3 mph 0.06 in Rain Rain
12:32 AM 48.2 °F - 48.2 °F 100% 29.81 in 3.0 mi NNW 10.4 mph - 0.11 in Rain Rain
12:54 AM 48.9 °F - 48.0 °F 97% 29.81 in 3.0 mi NNW 6.9 mph - 0.14 in Rain Light Rain
1:06 AM 48.2 °F - 48.2 °F 100% 29.80 in 5.0 mi NNW 9.2 mph - 0.01 in Rain Light Rain
1:42 AM 48.2 °F - 46.4 °F 93% 29.78 in 10.0 mi NNW 6.9 mph - 0.02 in Rain Light Rain
1:54 AM 46.9 °F - 46.0 °F 97% 29.79 in 10.0 mi NNW 10.4 mph - 0.02 in Rain Light Rain
2:54 AM 46.0 °F 41.0 °F 45.0 °F 96% 29.79 in 10.0 mi NNW 10.4 mph - 0.01 in Rain Light Rain
3:54 AM 45.0 °F 39.3 °F 43.0 °F 93% 29.79 in 7.0 mi NW 11.5 mph - 0.04 in Rain Light Rain
4:54 AM 43.0 °F 36.4 °F 42.1 °F 97% 29.83 in 4.0 mi NW 12.7 mph - 0.06 in Rain Rain
5:16 AM 42.8 °F 36.6 °F 41.0 °F 93% 29.83 in 9.0 mi NW 11.5 mph - 0.02 in Rain Light Rain
5:54 AM 42.8 °F 36.2 °F 39.2 °F 87% 29.84 in 10.0 mi NW 12.7 mph - N/A Rain Light Rain
6:23 AM 42.8 °F 37.0 °F 39.2 °F 87% 29.84 in 9.0 mi NW 10.4 mph - 0.03 in Rain Light Rain
6:54 AM 41.0 °F 34.3 °F 39.9 °F 96% 29.86 in 7.0 mi NW 11.5 mph - 0.05 in Rain Light Rain
7:00 AM 41.0 °F 33.9 °F 39.2 °F 93% 29.84 in 5.0 mi NNW 12.7 mph - 0.01 in Rain Light Rain
7:54 AM 39.9 °F 31.8 °F 37.9 °F 93% 29.87 in 8.0 mi NW 15.0 mph 18.4 mph 0.02 in Rain Light Rain
8:46 AM 39.2 °F 32.0 °F 37.4 °F 93% 29.87 in 4.0 mi NNW 11.5 mph - 0.02 in Rain Light Rain
8:54 AM 39.0 °F 32.3 °F 37.9 °F 96% 29.89 in 6.0 mi NNW 10.4 mph - 0.03 in Rain Light Rain
9:54 AM 37.0 °F 28.9 °F 35.1 °F 93% 29.88 in 8.0 mi NNW 12.7 mph - 0.06 in Rain Light Rain
10:27 AM 37.4 °F 29.3 °F 35.6 °F 93% 29.91 in 10.0 mi NNW 12.7 mph - 0.01 in Rain Light Rain
10:54 AM 37.0 °F 30.4 °F 35.1 °F 93% 29.91 in 8.0 mi NNW 9.2 mph - 0.01 in Rain Light Rain
11:13 AM 37.4 °F 30.3 °F 35.6 °F 93% 29.91 in 2.0 mi NW 10.4 mph - 0.00 in Rain Light Rain
11:47 AM 37.4 °F 28.2 °F 35.6 °F 93% 29.91 in 1.8 mi NW 16.1 mph - 0.00 in Rain Light Rain
11:49 AM 37.4 °F 27.5 °F 35.6 °F 93% 29.91 in 2.0 mi NW 18.4 mph 23.0 mph 0.00 in Rain Light Rain
11:54 AM 37.0 °F 27.7 °F 35.1 °F 93% 29.93 in 2.0 mi NW 16.1 mph 23.0 mph 0.00 in Rain Light Rain
12:04 PM 37.4 °F 28.5 °F 35.6 °F 93% 29.92 in 2.0 mi NW 15.0 mph 23.0 mph N/A Rain , Snow Light Rain
12:08 PM 37.4 °F 28.2 °F 35.6 °F 93% 29.92 in 3.0 mi NW 16.1 mph 23.0 mph 0.01 in Rain , Snow Light Rain
12:23 PM 37.4 °F 29.3 °F 35.6 °F 93% 29.94 in 6.0 mi NW 12.7 mph 20.7 mph 0.02 in Rain , Snow Light Rain
12:54 PM 37.0 °F 28.9 °F 35.1 °F 93% 29.96 in 6.0 mi NW 12.7 mph 20.7 mph 0.02 in Rain , Snow Light Rain
1:06 PM 37.4 °F 27.2 °F 35.6 °F 93% 29.95 in 8.0 mi NW 19.6 mph 25.3 mph 0.00 in Rain , Snow Light Rain
1:08 PM 37.4 °F 27.5 °F 35.6 °F 93% 29.96 in 8.0 mi NW 18.4 mph 25.3 mph 0.00 in Rain , Snow Light Rain
1:19 PM 37.4 °F 28.9 °F 35.6 °F 93% 29.95 in 8.0 mi NW 13.8 mph - 0.01 in Rain , Snow Light Rain
1:54 PM 37.0 °F 28.5 °F 35.1 °F 93% 30.00 in 8.0 mi NW 13.8 mph 19.6 mph 0.02 in Rain , Snow Light Rain
2:29 PM 39.2 °F 32.5 °F 35.6 °F 87% 30.00 in 9.0 mi WNW 10.4 mph - N/A Rain Light Rain
2:54 PM 39.0 °F 29.9 °F 35.1 °F 86% 30.02 in 9.0 mi WNW 17.3 mph 21.9 mph 0.01 in Rain Light Rain
3:43 PM 39.2 °F 31.2 °F 35.6 °F 87% 30.03 in 10.0 mi NW 13.8 mph 25.3 mph 0.00 in Rain Light Rain
3:52 PM 39.2 °F 31.6 °F 35.6 °F 87% 30.03 in 9.0 mi WNW 12.7 mph 23.0 mph 0.00 in Rain Light Rain
3:54 PM 39.9 °F 31.8 °F 36.0 °F 86% 30.05 in 9.0 mi WNW 15.0 mph 23.0 mph 0.00 in Rain Light Rain
4:04 PM 42.8 °F 35.4 °F 37.4 °F 81% 30.03 in 10.0 mi WNW 15.0 mph 20.7 mph 0.00 in   Overcast
4:54 PM 42.1 °F 35.2 °F 32.0 °F 67% 30.06 in 10.0 mi NW 12.7 mph 20.7 mph 0.00 in   Mostly Cloudy
5:54 PM 44.1 °F 36.5 °F 30.9 °F 60% 30.08 in 10.0 mi WNW 17.3 mph 21.9 mph N/A   Mostly Cloudy
6:54 PM 44.1 °F 37.1 °F 30.0 °F 58% 30.11 in 10.0 mi WNW 15.0 mph 24.2 mph N/A   Mostly Cloudy
7:54 PM 43.0 °F 38.2 °F 28.0 °F 56% 30.13 in 10.0 mi WNW 8.1 mph - N/A   Partly Cloudy
8:54 PM 39.0 °F 36.8 °F 30.0 °F 70% 30.17 in 10.0 mi West 3.5 mph - N/A   Partly Cloudy
9:54 PM 37.0 °F 32.4 °F 30.9 °F 79% 30.20 in 10.0 mi SSW 5.8 mph - N/A   Partly Cloudy
10:54 PM 36.0 °F 29.6 °F 30.9 °F 82% 30.22 in 10.0 mi SSW 8.1 mph - N/A   Partly Cloudy
11:54 PM 35.1 °F 29.3 °F 32.0 °F 89% 30.21 in 10.0 mi SSW 6.9 mph - N/A   Partly Cloudy